Home > Weather > Rietberg > Past weeks

Flag for Germany Past Weather in Rietberg, North Rhine-Westphalia, Germany — Yesterday and Last 2 Weeks

Now
59 °F

Clear.


Feels Like: 60 °F
Forecast: 61 / 71 °F
Wind: 3 mph from Northeast

Location: Paderborn / Lippstadt

Current Time: May 29, 2016 at 4:04:05 AM

Latest Report: May 29, 2016 at 2:50 AM


Visibility: 10 mi

Pressure: 29.83 "Hg

Humidity: 100%

Dew Point: 59 °F

Location of RietbergLocation

Past Weather in Rietberg — Graph

°F

Rietberg Temperature Yesterday

Maximum temperature yesterday: 73 °F (at 3:20 PM)
Minimum temperature yesterday: 55 °F (at 1:20 AM)
Average temperature yesterday: 64 °F

High & Low Weather Summary for the Past Weeks

 TemperatureHumidityPressure
High79 °F (May 22, 1:50 PM)100% (May 15, 2:50 AM)30.09 "Hg (May 15, 2:50 AM)
Low37 °F (May 16, 4:20 AM)34% (May 18, 3:20 PM)29.68 "Hg (May 19, 2:50 AM)
Average56 °F77%29.94 "Hg
* Reported May 14 2:20 AM — May 29 2:50 AM, Rietberg, Weather by CustomWeather, © 2016

Note: Actual official high and low records may vary slightly from our data, if they occured in-between our weather recording intervals... More about our weather records

Advertising

Rietberg Weather History for the Previous 24 Hours

Scroll right to see more
 ConditionsComfort  
Time TempWeatherWind HumidityBarometerVisibility
2:50 AM
Sun, May 29
59 °FClear.3 mph100%29.83 "Hg10 mi
2:20 AM59 °FClear.1 mph100%29.83 "Hg10 mi
1:50 AM61 °FClear.2 mph100%29.83 "Hg10 mi
1:20 AM63 °FClear.6 mph94%29.83 "Hg10 mi
12:50 AM59 °FClear.2 mph100%29.83 "Hg10 mi
12:20 AM61 °FClear.2 mph100%29.86 "Hg10 mi
11:50 PM
Sat, May 28
59 °FPassing clouds.3 mph100%29.86 "HgN/A
11:20 PM63 °FClear.5 mph94%29.86 "Hg10 mi
10:50 PM63 °FPassing clouds.5 mph94%29.86 "HgN/A
10:20 PM63 °FSunny.5 mph94%29.86 "Hg10 mi
9:50 PM63 °FSunny.5 mph88%29.86 "Hg10 mi
9:20 PM64 °FSunny.6 mph83%29.86 "Hg10 mi
8:50 PM64 °FSunny.8 mph78%29.86 "Hg10 mi
8:20 PM66 °FSunny.7 mph78%29.86 "Hg10 mi
7:50 PM66 °FPassing clouds.7 mph78%29.86 "HgN/A
6:50 PM70 °FPassing clouds.10 mph64%29.86 "HgN/A
6:20 PM70 °FPassing clouds.12 mph64%29.86 "HgN/A
5:50 PM72 °FScattered clouds.12 mph61%29.89 "HgN/A
5:20 PM73 °FScattered clouds.8 mph50%29.86 "HgN/A
4:50 PM73 °FScattered clouds.9 mph50%29.86 "HgN/A
4:20 PM73 °FScattered clouds.8 mph50%29.89 "HgN/A
3:50 PM73 °FScattered clouds.8 mph50%29.89 "HgN/A
3:20 PM73 °FScattered clouds.9 mph53%29.89 "HgN/A
2:50 PM72 °FScattered clouds.5 mph57%29.89 "HgN/A
2:20 PM70 °FScattered clouds.6 mph60%29.92 "HgN/A
1:50 PM72 °FScattered clouds.5 mph57%29.92 "HgN/A
1:20 PM70 °FScattered clouds.9 mph57%29.92 "HgN/A
12:50 PM70 °FScattered clouds.8 mph57%29.92 "HgN/A
12:20 PM70 °FScattered clouds.7 mph60%29.92 "HgN/A
11:50 AM68 °FPassing clouds.2 mph64%29.92 "HgN/A
11:20 AM70 °FPassing clouds.6 mph57%29.92 "HgN/A
10:50 AM68 °FPassing clouds.7 mph64%29.95 "HgN/A
10:20 AM68 °FPassing clouds.9 mph69%29.95 "HgN/A
9:50 AM66 °FClear.8 mph73%29.95 "Hg5 mi
9:20 AM64 °FClear.9 mph78%29.95 "Hg4 mi
8:50 AM63 °FClear.7 mph83%29.95 "Hg4 mi
8:20 AM63 °FClear.7 mph83%29.95 "Hg5 mi
7:50 AM61 °FClear.6 mph88%29.95 "Hg5 mi
7:20 AM59 °FClear.7 mph94%29.95 "Hg4 mi
6:50 AM57 °FClear.6 mph100%29.95 "Hg4 mi
6:20 AM57 °FClear.6 mph100%29.95 "Hg4 mi
5:50 AM57 °FClear.5 mph100%29.95 "Hg10 mi
5:20 AM57 °FClear.3 mph100%29.98 "Hg10 mi
4:50 AM57 °FClear.6 mph100%29.95 "Hg10 mi
4:20 AM57 °FClear.7 mph100%29.95 "Hg10 mi
Weather by CustomWeather, © 2016

See weather overviewHow to use our weather pages